Dewpoint
69 69 68 68 68 68 68 69 71 70 71 71 71 72 74 73 72 71 68 65 66 66
70 69 69 69 69 69 70 70 71 71 70 71 72 73 73 70 68 67 64 63 63 64
70 70 70 69 69 69 70 71 72 73 72 72 73 72 70 68 65 64 63 61 62 62
70 70 70 69 69 69 70 71 72 71 72 72 71 69 67 65 64 62 61 60 60 59
70 70 69 69 70 70 70 71 71 71 71 70 69 67 65 64 62 61 60 60 61 60
69 68 69 69 70 70 70 71 72 71 70 70 66 65 64 63 62 61 59 59 59 58
68 68 69 69 70 70 71 71 70 70 69 68 64 64 63 62 61 59 57 59 59 58
68 69 69 68 70 70 71 71 70 69 67 65 64 62 62 61 58 57 56 55 55 56
68 68 68 69 70 71 70 70 68 68 66 64 62 63 62 59 55 55 55 56 57 59
67 68 69 69 70 70 70 68 67 67 65 64 63 63 63 59 53 53 55 55 54 54
67 67 68 68 70 70 69 68 67 66 65 63 64 62 61 57 53 53 55 55 56 55
67 66 67 68 70 70 68 67 66 66 64 62 62 61 59 55 52 52 55 58 58 55
67 67 67 68 69 68 68 67 65 64 64 62 62 60 59 55 52 53 54 58 57 57
67 68 68 69 69 69 68 67 65 64 63 62 61 60 58 56 55 54 56 56 56 55
Lifted_Index
-1 -1 -1 -1 -1 -1 -1 -1 -1 -1 -1 -1 -1 -2 -2 -2 -1 -0 1 2 2 2
-1 -1 -1 -1 -1 -1 -1 -1 -1 -1 -1 -1 -2 -2 -2 -2 -1 1 2 2 3 2
-1 -1 -1 -1 -1 -1 -1 -1 -2 -2 -2 -2 -3 -3 -2 -1 0 2 3 4 4 4
-0 -0 -1 -1 -1 -1 -1 -1 -2 -2 -3 -3 -3 -3 -2 -1 1 3 5 5 5 5
-1 -1 -1 -1 -1 -1 -1 -1 -2 -2 -2 -3 -2 -2 -1 0 2 4 6 7 7 7
-1 -1 -1 -1 -1 -1 -1 -1 -2 -2 -2 -2 -2 -1 0 2 4 6 8 8 8 8
-1 -1 -1 -1 -1 -1 -1 -2 -2 -2 -2 -1 -0 1 2 4 6 8 9 10 9 9
-1 -1 -1 -1 -1 -1 -2 -2 -2 -2 -2 -1 1 2 3 5 7 9 10 11 11 11
-1 -1 -2 -2 -2 -2 -2 -1 -1 -1 -1 0 2 3 5 6 8 10 11 12 12 12
-1 -2 -2 -2 -2 -2 -2 -1 -1 -1 -0 1 3 5 6 7 9 11 12 13 14 13
-2 -2 -2 -2 -2 -2 -2 -2 -2 -1 0 2 4 5 6 7 10 12 14 14 13 13
-2 -2 -2 -3 -3 -3 -3 -3 -2 -1 0 2 4 5 6 7 9 12 13 12 12 12
-2 -2 -2 -2 -2 -3 -3 -3 -2 -1 0 2 4 5 6 7 8 11 12 11 10 10
-1 -1 -2 -1 -1 -2 -3 -3 -2 -1 0 2 3 5 5 6 7 9 11 10 10 9